Погода в Сорочинске

Погода в Сорочинске : погода сейчас, прогноз погоды и архив. Всё, что Вы хотите узнать о погоде в Сорочинске!

Хотите узнать прогноз погоды в Сорочинске? Тогда Вам сюда: Погода в Сорочинске

Поиск расширенной информации на нашем сайте:

Другие новости

Новости СМИ2

Главная страница сайта

Новости сайта

03.07.2017

Напоминаем, что на нашем специализированном сайте Метеоцентр.Азия вы можете получить высокодетализированные автоматические прогнозы погоды по пунктам России, СНГ и мира в авиационном формате (включающие направление и скорость ветра, видимость, явления погоды, количество и форму облачности, нижнюю и верхнюю границу облачности).


Погода в Сорочинске - сегодня

Время (UTC), дата Ветер
(°,м/с) 
Видим.   Явления Облачность Т
(°С)
Тd
(°С)
f(%) Тe
(°С)
Pmin
(гПа)
dP
(гПа)
Po
(мм)
O2
(г/м3)
Тmin Tmax R s Состояние
почвы
12 13.08.18 220 (ЮЗ) 8-14{15}  20000 м  слаб. ливневой дождь  10/10 900 м кучево-дожд. 
[Cb cap]
+21.2 +15 68 +30  1011.4  0.1  748  276           
15 13.08.18 210 (ЮЗ) 5-10{14}  20000 м  {гроза, ливн. осадки}  10/10 900 м кучево-дожд. 
[Cb cap]
+22.5 +14.2 59 +30  1010.5  -0.7  747  275    +31.9  0.7     
03 14.08.18 130 (ЮВ) 20000 м    10/8 600 м кучево-дожд., средняя 
[Cb cap|Ac cast]
+19.9 +15.3 75 +30  1010.6  0.2  747  277  +18.4    0.0    сухая 
06 14.08.18 220 (ЮЗ) 10 км    10/6 1000 м средняя 
[Sc|Ac trans]
+22.4 +15.3 64 +32  1010.4  0.1  747  275           
09 14.08.18 250 (З) 20000 м    8/5 1000 м средняя 
[Cu hum|Ac trans]
+27.5 +12.5 39 +32  1009.2  -1  746  271           
15 14.08.18 030 (СВ) 20000 м  {гроза}  10/8 1000 м кучево-дожд., верхняя 
[Cb cap|Ci]
+24 +11.8 46 +28  1009.7  1.3  747  274    +28.6     
18 14.08.18 350 (С) 20000 м  {гроза}  6/0 верхняя 
[Ci fib]
+19.9 +9.7 52 +22  1012.5  2.5  748  279           
21 14.08.18 310 (СЗ) 20000 м    ясно 
+13.6 +9.3 75 +15  1014.2  1.3  749  286           
00 15.08.18 280 (З) 20000 м    ясно 
+11.2 +8.2 82 +12  1015.3  750  289           
06 15.08.18 350 (С) 20000 м    3/3 1000 м 
[Cu hum]
+21.7 +8.7 43 +22  1017.3  0.8  752  279           
09 15.08.18 320 (СЗ) 20000 м    6/6 1000 м 
[Cu med, cong]
+25.2 +5.8 29 +25  1016.9  -0.2  752  276           
18 15.08.18 270 (З) 20000 м    3/0 верхняя 
[Ci fib]
+16.9 +6.8 51 +18  1018.7  0.7  753  285           
21 15.08.18 тихо ()   20000 м    ясно 
+12.1 +7.8 75 +12  1019.3  0.4  753  289           
00 16.08.18 130 (ЮВ) 20000 м    ясно 
+10.8 +7.5 80 +12  1019.5  0.1  753  291           
06 16.08.18 240 (ЮЗ) 20000 м    ясно 
+26 +6.7 29 +26  1019  -0.3  754  276           
09 16.08.18 240 (ЮЗ) 20000 м    ясно 
+28.6 +6 24 +29  1017.5  -1.4  752  274           
15 16.08.18 210 (ЮЗ) 20000 м    ясно 
+28 +6 25 +28  1015.3  -1  751  273    +29.9       
18 16.08.18 200 (Ю) 20000 м    ясно 
+22.1 +6.2 36 +22  1015.5  0.1  751  279           
21 16.08.18 210 (ЮЗ) 20000 м    ясно 
+19.6 +6.5 42 +21  1015  -0.6  750  281           
00 17.08.18 тихо ()   20000 м    ясно 
+15.3 +7.8 61 +15  1015.1  -0.6  750  285           
03 17.08.18 тихо ()   20000 м    4/0 средняя 
[Ac trans]
+18.2 +9 55 +18  1015.2  0.2  750  282  +14.8        сухая 
06 17.08.18 040 (СВ) 20000 м    8/0 средняя, верхняя 
[Ac trans|Ci fib]
+24.9 +10.1 39 +26  1014.9  0.2  750  275           
09 17.08.18 040 (СВ) 20000 м  в посл. час ливневой дождь  8/8 600 м кучево-дожд. 
[Cb cap]
+25.8 +16.1 55 +36  1014.2  -0.6  750  273           
15 17.08.18 040 (СВ) 5-10{10}  20000 м  {гроза, ливн. осадки}  10/8 600 м кучево-дожд., средняя 
[Cb cap|Ac cuf]
+18.4 +14.1 76 +26  1015.1  -0.2  750  280    +27.4     
21 17.08.18 040 (СВ) 20000 м    10/0 верхняя 
[Ci fib]
+15 +9.4 69 +15  1016.3  -0.2  751  285           
Время (UTC), дата Ветер
(°,м/с) 
Видим.   Явления Облачность Т
(°С)
Тd
(°С)
f(%) Тe
(°С)
Pmin
(гПа)
dP
(гПа)
Po
(мм)
O2
(г/м3)
Тmin Tmax R s Состояние
почвы

Для получения пояснительной информации подведите курсор к названию столбца.

ПОГОДА в Сорочинске - архив

Всё, что Вы хотите узнать о погоде в Сорочинске - удобно и подробно!

Выберите нужную дату (начиная с 1 января 2015* года) и нажмите кнопку "Найти".
Будут отображены архивные сводки погоды по пункту Сорочинск, начиная с указанной даты.


Отображать данные в формате CSV (для использования в таблицах Excel)


Внимание! Наш архив погоды предназначен исключительно для личного некоммерческого использования в познавательных целях. Если Вам необходимы официальные справки о состоянии погоды (для производственных, юридических, коммерческих и т.п. целей), обращайтесь в органы Росгидромета.

*Примечание: данная дата относится к архиву по метеостанциям СССР (Россия, СНГ, Балтия).
Архив по метеостанциям Зарубежной Европы и Азии (кроме Китая) хранится 10 дней, по другим регионам земного шара (Китай, Африка, Америка, Австралия, Океания) - 1 день.

Сорочинск - район местоположения метеостанции


Название, широта, долгота, высота метеостанции:
Сорочинск 52.4°ш. 53.1°д. 123 м над ур. моря [Российская Федерация]

Дополнительная информация

В oтличие oт бoльшинства пoгoдных сайтoв мы публикуем пoдрoбную метеoинфoрмацию в детальнoм прoфессиoнальнoм фoрмате.

Характеристики температуры и влажнoсти вoздуха измеряются на высoте 2 м в тени вдали oт зданий и деревьев.
Скoрoсть ветра измеряется на высoте 10 м (на урoвне рoста челoвека скoрoсть ветра ниже в 1.5-2 раза). Если метеoстанция нахoдится в гoрoде или в лесу, тo скoрoсть ветра занижена на 2-4 м/с пo сравнению с oткрытым местoм. Скoрoсть ветра над акватoриями крупных рек и oзёр, а также на вершинах хoлмoв на 2-5 м/с выше, чем в oбычных услoвиях.
Атмoсфернoе давление в разных тoчках местнoсти мoжет значительнo oтличаться oт давления на метеoстанции, в зависимoсти oт услoвий рельефа (при пoдъёме на 10 м давление пoнижается примернo на 1 мм рт.ст.).